KUIPER-00141

导读

KUIPER-00170是美国亚马逊柯伊伯(Project Kuiper)计划中的一颗低轨卫星互联网卫星,于2025年9月25日发射。柯伊伯计划计划部署超3000颗低轨卫星,旨在为全球提供高速低延迟卫星互联网接入,KUIPER-00170是该项目大规模部署阶段的组成部分,将助力实现全球宽带覆盖,尤其服务偏远地区,并可结合AWS云服务,支撑企业、国防等多场景应用。

基本信息
目录编号:
65783
目录名称:
KUIPER-00170
国际标识:
2025-217X
轨道中心:
EARTH
卫星名称:
KUIPER-00170
卫星全名:
KUIPER-00141
卫星状态:
在轨 (已飞行305 天)
发射日期:
2025-09-25 UTC
国别 :
美国 (US)
星等 :
--
轨道信息
数据来源 国际轨道数据
星历时间: 2026-07-27T08:52:29+0800
22小时前
查看轨道信息
半长轴: 7007.68km
偏心率: 0.0000822
轨道倾角: 51.898°
近地点辐角 83.851°
升交点赤经 141.883°
平近点角 276.255°
近地点: 628.966km
远地点: 630.12km
周期: 97.302分钟
每日圈数: 14.799308
详细信息
使用方式:
暂无
2D轨道图
3D轨道图
轨道高度分析图
轨道倾角分析图
轨道综合分析图
查看轨道综合分析图